Lid_Strength_Index
0 1 3 7 11 11 14 12 10 10 10 7 6 7 8 8 10 12 3 1 -0 -0 -1 -1 -1 -1 -1 -2 -2 -2 -2 -2 -2 -2 -2 -2 -2 -2 -2 -2 -2 -2 -2 -2 -2 -2 -2 -2 -2
1 2 5 10 13 15 14 11 11 9 7 6 6 7 8 10 5 4 3 0 -0 -0 -1 -1 -1 -1 -1 -2 -2 -2 -2 -2 -2 -2 -2 -2 -2 -2 -2 -2 -2 -2 -2 -2 -2 -2 -2 -2 -2
2 3 8 11 14 15 14 11 10 9 8 8 8 6 7 8 5 4 2 0 -0 -0 -0 -0 -1 -1 -2 -2 -2 -2 -2 -2 -3 -2 -2 -2 -2 -2 -2 -2 -2 -3 -2 -2 -2 -2 -2 -2 -1
4 5 7 11 14 13 12 10 8 9 8 7 7 9 6 3 3 2 1 0 0 -0 -0 -0 -1 -1 -2 -2 -2 -2 -2 -3 -3 -3 -2 -2 -2 -2 -3 -2 -2 -2 -2 -2 -2 -2 -2 -1 -1
5 7 11 13 13 11 12 10 8 9 8 8 8 9 8 4 2 2 1 1 1 0 -0 -0 -1 -1 -2 -2 -2 -2 -2 -3 -2 -2 -2 -2 -3 -2 -2 -2 -3 -2 -2 -2 -2 -2 -1 -1 -1
8 8 13 15 13 10 11 10 9 9 8 8 8 9 7 3 3 2 1 1 -0 0 -0 -0 1 -0 -1 -1 -2 -2 -2 -3 -3 -3 -2 -2 -3 -2 -2 -2 -3 -2 -2 -2 -2 -1 -1 -1 -1
8 10 14 14 13 11 10 8 9 9 8 8 7 10 8 5 3 2 1 1 0 -0 -0 -0 -0 0 0 -0 -1 -1 -2 -2 -3 -3 -2 -2 -3 -2 -2 -2 -3 -2 -2 -2 -1 -1 -1 -1 -1
7 9 14 13 13 12 9 8 8 8 9 5 5 9 9 4 2 2 2 1 0 0 -0 -0 0 0 0 0 1 -0 -1 -1 -2 -2 -1 -1 -1 -1 -1 -1 -2 -2 -2 -2 -1 -1 -1 -1 -1
6 11 14 13 12 11 9 9 7 7 7 6 6 6 4 3 2 3 3 3 2 1 0 -0 0 0 0 0 1 1 0 -0 -0 -0 0 1 -1 -1 -0 -0 -1 -2 -2 -2 -1 -1 -1 -1 -0
8 12 11 8 9 10 8 8 9 9 9 8 7 5 3 3 3 4 4 3 3 2 1 0 0 -0 -0 -1 0 0 0 0 1 1 1 1 1 1 0 1 -0 -1 -1 -2 -2 -2 -2 0 2
8 11 8 8 7 7 8 8 7 9 10 9 8 6 5 5 4 4 4 3 4 2 2 1 0 0 -0 -0 0 0 0 1 1 1 2 2 2 2 1 1 1 1 2 1 -0 0 0 2 2
11 8 8 7 6 7 8 7 8 8 8 7 7 5 4 5 4 4 4 3 3 4 2 1 1 1 -0 -0 0 0 1 1 1 1 1 2 3 3 2 2 2 2 1 1 1 1 1 2 2
9 8 7 7 7 7 7 8 8 8 7 6 6 4 5 4 4 3 3 2 3 3 3 2 1 1 0 1 0 0 0 1 1 1 1 1 2 3 2 2 2 2 2 2 3 3 3 2 2
8 8 8 7 7 7 8 8 8 7 7 6 5 5 5 4 4 4 3 3 3 3 2 2 1 2 1 1 1 0 0 0 1 0 1 1 1 2 2 2 2 2 2 2 3 3 3 2 2
8 11 9 9 8 8 7 9 9 6 6 6 5 5 6 4 4 4 3 3 2 2 2 2 2 2 2 1 1 1 0 0 1 1 1 1 1 1 2 2 3 2 2 3 3 3 3 3 2
11 11 15 10 8 8 8 13 8 6 7 7 7 6 5 5 4 3 3 2 2 2 2 2 2 2 2 2 2 1 1 1 1 1 1 1 1 1 2 2 3 3 3 2 4 3 4 4 3
12 16 15 12 8 9 9 12 8 7 8 8 8 8 7 6 4 5 2 2 2 2 1 2 2 2 2 2 2 2 2 1 1 1 1 1 1 1 1 2 2 3 3 3 3 4 4 4 4
14 15 14 14 11 10 11 11 8 7 7 8 7 7 7 8 7 4 3 2 2 1 1 1 1 2 2 2 2 2 3 3 1 1 1 1 1 1 1 2 2 3 3 3 4 4 4 4 4
12 14 14 12 9 11 12 11 10 8 8 9 7 7 7 6 5 6 5 4 2 2 2 1 2 1 2 3 3 3 3 3 3 1 1 1 1 1 1 2 3 3 3 3 3 3 4 4 4
12 13 14 12 10 11 12 12 9 8 8 7 7 7 6 6 5 5 5 6 3 2 2 2 1 1 2 1 2 2 2 3 3 3 1 2 1 2 2 2 2 3 3 3 4 3 4 4 3
13 13 13 13 11 10 12 13 11 8 8 7 7 6 6 6 5 5 5 5 5 2 2 2 1 1 1 1 1 2 2 2 3 3 3 2 2 2 2 2 2 3 3 3 3 3 3 4 4
15 11 12 13 14 17 11 19 12 10 9 9 8 8 8 7 6 5 4 5 5 4 2 2 1 1 1 1 1 2 3 4 3 3 3 3 2 2 2 2 2 2 3 3 3 3 3 3 4
13 10 11 12 14 16 14 17 14 11 11 9 9 9 8 8 7 6 5 4 4 5 3 2 1 1 1 1 1 2 2 2 2 2 3 3 3 2 2 2 2 2 2 3 3 3 3 3 3
9 12 13 14 14 19 15 16 15 12 11 10 10 9 8 8 7 6 5 4 4 5 4 2 2 2 1 1 1 2 2 2 2 3 3 3 3 2 2 2 2 2 3 2 3 3 3 2 2
11 14 18 20 20 20 14 16 14 10 9 9 9 9 8 8 8 7 7 6 5 6 6 2 2 2 2 2 1 1 2 2 2 2 2 3 3 3 3 2 3 3 3 2 2 3 3 2 3
13 13 17 22 21 18 15 18 14 9 7 8 8 9 8 8 7 7 7 6 6 6 6 6 3 3 2 2 2 1 1 1 1 1 1 2 2 3 2 3 3 3 2 2 2 2 2 2 2
13 15 11 17 17 19 16 13 10 8 8 8 9 9 10 8 8 8 7 7 6 6 6 6 4 2 2 2 2 2 1 1 2 1 1 1 1 2 2 2 3 3 3 2 2 2 3 3 2
11 10 17 16 22 22 18 17 15 12 11 10 11 10 9 9 8 8 8 8 7 6 5 5 5 3 2 2 2 2 1 1 1 1 1 1 1 2 2 2 3 3 3 3 2 2 2 2 3
13 14 13 13 16 20 21 17 11 10 10 11 11 9 9 9 8 8 8 9 8 8 8 7 6 6 5 3 2 2 2 1 1 1 1 1 1 1 2 2 2 3 3 3 3 3 3 4 3
9 12 12 16 18 16 17 16 9 10 11 10 9 8 7 8 8 8 7 8 7 7 8 7 7 7 6 5 4 2 2 2 2 2 1 1 1 1 1 2 2 2 3 3 3 4 4 3 3